GFSCGP_700_spd_132.txt.gz
Wind_Speed
38 39 29 37 40 37 24 26 33 33 27 27 30 35 33 27 35 37 36 38 41 40 32 27 27 23 23 21 21 22 24 25 26 25 23 24 24 22 20 17 17 18 18 18
39 46 42 38 38 40 35 18 21 23 29 26 32 36 35 33 36 37 38 38 38 39 39 33 33 31 27 24 23 24 23 26 26 25 22 22 22 23 23 22 21 21 20 20
44 48 41 34 34 37 41 40 32 23 18 19 30 43 44 40 36 37 40 36 37 39 37 37 36 37 34 30 28 24 21 23 25 26 27 26 26 27 26 24 22 20 21 21
44 53 41 36 42 38 41 40 30 30 22 17 12 13 35 34 39 41 38 38 36 39 39 37 40 42 40 37 31 27 26 24 25 26 27 26 26 25 23 23 23 23 23 23
41 50 49 37 49 44 40 31 36 23 22 24 26 17 35 33 40 38 39 38 34 33 31 31 33 37 38 37 36 32 29 28 26 25 26 26 26 25 25 27 27 27 26 26
42 35 27 47 39 39 36 30 15 29 27 16 37 27 31 42 41 33 34 34 30 29 31 31 30 31 34 37 37 38 34 30 28 28 28 27 27 27 28 29 30 29 29 28
47 34 46 47 38 41 41 25 8 9 9 13 16 26 50 22 25 34 35 33 32 31 31 31 32 34 33 35 38 37 39 36 35 33 31 30 27 28 27 27 28 30 29 28
37 30 37 47 53 35 46 44 12 8 6 10 18 21 23 29 23 31 23 30 38 34 32 32 33 36 36 36 37 38 39 40 38 36 34 31 31 29 27 27 26 26 26 26
19 39 30 41 45 47 41 37 41 6 9 3 15 38 47 40 32 31 31 30 36 38 34 30 25 27 28 32 36 39 39 39 40 39 36 35 34 32 30 28 26 25 25 25
29 14 31 39 42 42 38 47 32 15 4 5 11 24 36 20 32 37 38 30 27 32 34 35 31 27 25 24 27 33 36 37 39 39 42 40 36 33 31 31 29 28 27 26
36 25 23 35 41 47 43 33 39 35 20 5 8 21 41 35 40 39 27 26 23 26 29 26 31 28 29 29 28 29 31 32 34 36 38 41 41 40 39 37 32 29 28 28
54 12 17 47 42 50 57 42 46 24 25 33 6 34 23 11 14 26 30 29 25 25 26 27 30 31 31 31 30 31 31 31 31 32 35 39 42 43 44 43 38 33 31 31
45 42 23 12 38 45 43 49 49 46 35 38 22 48 50 33 13 15 22 29 31 29 33 37 36 35 33 33 31 30 30 30 28 29 30 32 34 36 37 36 35 33 33 31
31 47 37 23 34 39 54 62 58 60 41 49 51 73 51 24 17 20 26 27 33 34 33 33 35 32 32 32 30 30 28 27 26 26 26 27 27 27 25 25 28 30 30 29
40 46 48 65 44 31 47 54 58 53 66 45 64 67 72 61 55 22 19 22 24 26 28 25 24 23 25 27 27 26 25 24 24 23 22 21 20 19 19 21 22 22 23 24
28 49 49 56 54 64 43 52 54 57 63 61 66 63 72 64 53 53 42 26 24 23 23 22 23 26 26 22 23 25 26 26 25 23 21 19 17 16 18 20 23 24 26 28
29 38 41 40 59 47 50 59 61 63 67 72 68 70 64 61 61 53 54 45 40 27 25 27 28 25 21 20 24 24 26 26 25 23 21 20 20 21 22 24 27 29 30 30
38 33 48 39 25 23 53 63 64 66 68 66 75 67 68 71 70 57 48 44 47 46 40 33 30 29 25 24 26 28 27 27 26 25 23 23 24 26 26 25 26 29 30 30
43 43 29 24 37 15 36 60 63 66 80 77 72 75 70 69 49 58 62 55 44 37 40 36 34 34 34 30 30 31 31 31 30 29 30 28 27 26 25 24 25 26 27 27
36 38 38 28 19 17 67 57 57 46 57 61 64 67 67 64 60 69 61 55 49 49 52 49 42 42 42 40 36 36 35 34 32 33 32 29 27 25 25 25 26 27 28 29
27 40 46 47 23 26 43 31 33 38 61 62 67 62 59 64 65 52 58 57 51 48 51 52 52 48 45 44 39 39 37 35 34 32 31 30 29 29 29 29 29 30 30 29
29 21 25 42 33 27 42 34 45 64 48 57 52 49 46 50 46 48 50 45 46 46 44 44 48 51 50 49 43 44 41 39 36 34 33 33 33 33 33 33 32 32 31 30
35 38 35 34 53 46 33 46 53 49 31 42 29 27 31 35 37 35 39 49 50 47 43 41 45 50 53 52 48 47 43 40 38 38 38 39 37 37 37 33 32 31 30 28
36 34 45 42 55 58 32 23 33 44 45 35 29 21 23 27 31 33 28 25 32 44 49 47 44 49 55 53 50 48 45 46 47 44 44 41 38 35 31 31 32 30 28 27
32 36 43 49 46 40 45 38 30 30 36 38 38 32 34 30 29 29 25 31 33 41 43 41 42 45 48 51 51 50 47 45 47 44 41 38 34 33 33 33 31 30 29 28
31 36 40 39 46 42 31 42 39 32 29 31 29 24 28 27 27 25 24 23 22 27 31 34 39 42 45 48 47 46 47 45 43 41 38 35 33 34 35 33 32 30 29 30

GFSCGP_700_spd_135.txt.gz
Wind_Speed
54 51 33 41 37 41 29 25 29 32 27 29 34 35 31 29 35 35 35 41 46 45 36 33 30 29 25 25 23 22 25 26 28 27 26 24 23 24 23 20 18 20 20 20
31 42 42 37 29 37 36 22 20 20 21 25 31 39 35 34 34 34 34 40 41 43 44 41 38 34 33 28 27 25 25 26 28 27 25 25 23 25 26 25 23 23 22 22
41 32 31 39 35 27 36 35 23 14 14 19 25 39 40 41 36 33 34 35 40 42 39 38 42 39 37 34 32 29 24 25 28 27 28 28 27 27 29 28 25 23 22 23
41 39 19 28 31 28 35 34 33 29 25 18 11 15 41 32 34 37 36 34 34 40 41 36 36 41 40 39 39 33 29 28 27 30 31 29 27 26 23 24 24 25 26 26
48 35 46 30 35 37 28 24 21 25 27 27 28 20 45 39 40 35 36 35 33 34 37 35 35 38 39 41 40 38 35 33 31 31 31 30 29 27 27 29 29 29 29 28
42 35 28 45 46 45 33 26 23 21 22 16 38 25 33 43 45 34 30 30 33 32 38 34 32 33 38 40 41 42 42 39 35 33 32 32 30 29 30 31 30 29 29 29
39 33 42 43 35 29 27 24 10 9 8 11 18 26 55 24 21 25 29 29 30 30 32 32 29 31 32 35 35 36 42 45 43 38 36 34 32 31 31 30 29 30 31 32
32 20 38 35 37 37 48 45 15 8 7 10 13 20 32 36 38 31 22 27 22 31 32 32 30 33 34 36 36 35 35 41 43 42 38 35 33 34 31 29 27 29 30 30
24 35 24 40 32 41 32 42 42 7 8 3 12 39 47 46 48 35 27 28 29 24 32 34 32 32 32 37 38 37 38 35 41 46 42 40 37 36 34 31 30 29 29 29
25 15 38 34 32 35 42 41 25 18 8 7 12 30 35 25 21 27 39 38 30 22 25 28 37 33 32 31 31 33 39 38 38 41 41 42 40 38 37 37 35 33 32 32
36 31 13 21 41 44 43 37 30 24 14 5 9 19 41 33 26 37 38 33 28 22 25 25 33 37 35 34 32 29 32 37 39 41 42 43 43 42 42 40 37 36 35 35
44 14 23 29 28 42 44 36 36 21 13 27 10 31 19 10 7 7 13 19 26 31 28 26 30 30 29 36 35 31 29 31 34 37 40 42 44 44 45 44 42 41 39 36
33 29 23 10 18 32 46 51 43 47 29 30 21 41 50 53 48 36 23 17 16 28 29 30 30 34 33 34 36 33 32 31 32 35 37 39 41 43 44 43 44 44 43 41
19 29 25 22 13 10 39 46 55 53 42 48 40 65 63 45 32 24 28 37 28 23 29 32 35 34 32 33 34 33 32 32 32 32 35 36 37 37 38 39 41 42 41 38
22 16 26 36 42 37 28 37 44 50 55 40 59 62 70 63 58 33 19 21 21 23 27 30 32 31 35 35 34 34 32 31 33 33 33 33 33 33 34 34 34 32 29 28
27 35 27 39 34 40 43 52 44 51 58 53 63 63 68 64 58 52 51 50 50 43 33 23 20 23 26 25 25 25 26 27 28 29 29 30 30 28 26 25 23 22 24 25
20 20 22 40 29 26 34 55 61 66 54 62 66 68 66 58 60 59 55 52 53 50 42 28 19 20 23 24 24 23 24 25 26 28 28 27 26 25 23 21 20 20 22 26
34 28 18 36 26 17 46 47 54 59 68 68 68 70 70 66 60 56 56 60 54 46 41 48 36 26 25 27 26 24 22 24 27 27 27 27 26 24 22 21 23 25 25 26
35 39 28 22 28 27 33 42 48 50 66 66 67 76 67 61 71 73 68 62 58 54 50 41 49 45 37 35 29 27 26 25 27 30 30 28 26 25 23 23 24 25 25 25
20 37 37 27 12 10 57 50 32 37 56 50 61 76 87 81 64 78 62 60 57 53 47 42 41 41 43 41 36 34 32 32 30 31 31 30 30 30 28 26 24 24 24 25
28 25 40 45 32 30 64 51 39 32 52 56 57 56 60 72 71 60 54 54 47 44 43 43 41 45 42 43 40 37 35 36 33 34 34 33 32 30 27 26 25 25 26 27
33 23 29 41 23 26 50 25 35 53 52 49 38 49 43 47 51 48 45 44 47 41 40 41 42 48 54 51 50 41 39 38 40 37 35 33 32 30 29 27 27 28 29 30
39 44 45 27 33 44 33 31 32 37 45 31 40 25 25 28 35 32 37 36 37 37 37 38 39 45 46 49 54 50 44 45 45 41 37 35 33 32 31 30 31 31 32 33
36 40 48 46 58 55 46 42 39 37 44 46 38 34 35 35 32 35 36 32 30 33 32 40 42 41 41 45 54 57 53 50 48 44 39 36 35 35 36 35 34 34 33 33
36 35 38 49 51 48 37 40 49 43 44 49 38 32 28 29 32 33 29 28 30 30 34 32 43 46 41 41 42 45 50 50 50 45 41 39 40 41 39 37 35 34 33 34
43 42 43 44 43 50 46 36 42 46 46 41 42 39 40 38 35 35 37 34 35 33 32 37 37 43 44 44 44 43 46 47 48 46 43 43 42 41 39 36 35 35 35 34

GFSCGP_700_spd_138.txt.gz
Wind_Speed
43 37 39 37 33 33 37 28 26 22 28 29 32 34 37 31 37 37 38 37 41 45 48 43 35 31 29 27 27 23 25 29 33 34 33 31 28 28 27 26 24 23 23 23
32 42 50 40 37 26 39 29 28 21 23 26 28 37 43 41 42 40 37 39 39 41 45 48 47 40 37 32 30 30 28 27 30 33 33 32 30 28 29 30 29 26 24 24
36 43 29 38 42 36 43 36 31 21 18 21 23 34 43 43 45 42 40 38 37 40 43 42 47 48 45 43 38 37 33 29 29 31 32 34 34 34 34 33 32 30 27 25
37 38 29 20 40 44 33 37 35 32 26 14 13 15 32 31 39 43 40 39 36 36 36 40 43 47 47 46 44 39 38 36 32 32 35 35 32 32 29 29 31 32 31 28
37 31 35 39 46 33 38 32 29 27 26 24 28 14 49 34 44 44 39 37 35 32 33 34 36 40 40 39 44 43 41 40 37 37 35 34 35 32 33 33 32 33 33 33
31 19 24 44 28 26 34 15 14 20 19 12 39 28 26 44 44 46 37 33 33 33 35 37 33 34 39 37 40 43 46 44 43 41 38 37 34 35 35 36 35 34 34 34
42 42 41 27 25 37 30 17 5 7 8 10 14 24 44 35 33 40 34 31 32 32 32 34 36 37 36 38 40 43 45 46 47 48 44 41 36 37 36 36 35 37 36 36
35 21 43 41 43 36 38 37 18 9 7 14 12 17 24 29 35 40 43 36 28 28 29 32 33 34 34 37 38 40 43 45 46 47 47 45 40 40 39 37 36 37 37 35
24 30 20 38 38 38 35 39 41 24 17 7 12 35 42 38 42 42 43 37 27 27 24 21 25 31 32 33 34 36 36 37 39 41 44 49 47 44 42 38 37 36 36 34
17 14 32 23 29 35 33 28 23 20 9 13 18 36 30 29 25 19 24 35 37 37 36 31 25 26 36 35 35 36 38 39 40 41 41 42 45 45 41 40 40 38 36 37
29 20 9 28 33 34 38 39 28 21 23 11 14 24 40 38 41 50 41 33 23 28 25 25 29 35 33 39 38 35 35 37 41 44 42 41 44 46 45 43 42 41 39 40
40 18 23 26 20 33 39 35 38 24 11 16 20 32 20 3 8 21 18 13 11 18 26 34 35 31 34 36 40 38 38 34 34 37 42 43 43 44 45 46 45 44 43 42
27 29 21 12 26 38 33 45 47 35 26 29 11 27 36 36 38 22 15 19 24 21 23 18 22 26 30 29 32 38 40 36 35 35 37 42 44 46 46 46 46 47 46 46
19 26 24 29 8 6 25 38 43 45 30 27 30 48 66 50 27 16 29 30 24 27 31 33 24 21 27 28 33 34 32 32 32 35 35 37 42 44 46 47 48 48 47 47
18 16 30 29 30 26 30 34 27 37 47 34 44 50 62 61 42 52 56 53 47 31 25 20 11 18 21 26 27 32 32 33 34 34 35 36 38 43 45 45 45 45 46 45
17 19 15 22 25 28 32 35 32 43 48 44 55 61 61 61 42 43 49 54 47 44 34 32 34 41 29 24 24 28 31 34 37 38 37 37 36 39 41 41 41 41 41 42
23 22 13 17 13 15 20 43 39 40 39 47 49 63 56 57 56 53 53 52 47 45 41 43 37 30 34 24 26 24 24 26 29 31 32 34 36 35 35 36 37 38 38 35
21 18 17 15 12 10 33 25 27 31 34 32 48 60 67 67 59 57 59 61 58 55 51 45 42 29 26 34 26 22 25 26 25 26 28 29 31 32 33 34 33 31 29 28
25 26 24 13 15 26 45 44 34 26 39 27 36 54 63 68 54 68 69 68 59 51 49 42 40 43 39 34 41 31 28 29 26 23 23 24 27 30 32 31 28 27 27 28
17 22 25 16 6 8 59 27 21 17 41 46 40 49 54 58 49 67 62 52 50 56 60 59 56 46 39 34 38 46 47 37 38 33 27 26 29 31 32 31 30 28 28 30
17 19 25 31 15 24 61 35 24 17 50 45 37 42 45 48 50 59 44 45 46 41 40 42 41 40 33 37 37 43 39 41 40 35 31 30 31 33 33 34 33 31 30 30
18 14 19 18 15 23 26 19 28 34 32 34 34 35 43 45 47 46 41 37 40 37 35 37 40 36 34 35 40 46 48 41 36 38 37 35 36 38 38 37 37 35 33 33
18 27 24 23 21 39 34 36 27 24 32 33 44 39 43 42 39 38 32 32 27 28 31 28 32 35 35 37 40 45 51 47 40 40 44 42 41 41 40 39 38 36 35 34
33 31 37 32 44 40 41 56 52 41 43 49 51 47 45 50 46 47 46 34 33 33 33 34 31 34 37 41 43 47 48 48 47 42 49 47 46 45 45 42 40 39 37 36
31 33 38 45 47 50 52 47 50 45 47 59 62 61 55 54 51 49 47 45 40 40 32 29 29 30 36 33 42 45 50 49 49 47 51 51 50 47 46 45 42 40 39 39
40 44 46 52 46 51 48 44 46 56 55 56 58 56 57 58 53 42 41 38 40 37 32 29 29 30 33 36 34 45 43 42 44 45 49 52 53 50 50 49 47 43 41 42

GFSCGP_700_spd_141.txt.gz
Wind_Speed
39 35 30 31 29 34 25 18 25 27 24 32 28 33 33 38 40 43 41 39 36 34 36 43 44 42 36 33 30 27 25 24 29 35 36 36 35 33 32 30 28 28 27 27
32 38 49 32 27 30 27 28 36 28 22 26 29 35 33 36 38 40 44 43 39 41 41 44 45 48 47 41 37 32 29 28 27 29 34 37 37 36 34 33 33 31 29 27
41 48 30 30 33 26 37 35 33 31 16 26 28 41 38 51 46 45 45 47 41 40 43 44 44 45 47 51 44 38 36 31 29 29 31 36 41 41 39 37 35 33 33 30
32 34 27 24 36 34 33 35 40 31 29 24 17 21 30 37 34 33 43 48 45 39 39 41 43 44 46 48 50 49 44 40 35 36 35 37 39 39 37 36 34 35 36 35
35 25 29 32 30 27 40 28 32 30 33 31 27 16 44 31 41 36 36 42 42 37 38 40 40 39 38 40 42 49 49 48 45 45 42 39 38 36 36 38 37 37 36 36
34 24 25 38 35 28 23 24 27 33 41 19 40 34 27 34 47 39 38 40 35 31 35 36 35 36 33 35 38 43 46 47 45 48 46 43 40 36 37 38 39 38 36 36
40 35 32 22 28 30 26 27 7 6 7 8 26 28 44 26 22 28 30 36 27 27 34 35 34 35 36 37 38 41 45 47 45 48 50 47 44 39 39 38 38 39 39 38
33 31 41 33 32 34 46 33 7 8 4 9 20 13 28 20 27 23 29 35 32 31 26 26 29 33 35 38 43 43 43 43 43 45 49 48 47 46 43 42 39 40 40 40
21 33 19 36 46 32 25 34 44 27 41 9 11 25 26 26 35 36 38 36 32 30 28 27 28 30 24 33 38 40 43 43 43 44 46 50 48 49 49 45 44 40 39 41
22 18 26 24 24 35 41 30 16 24 6 8 17 34 29 11 19 22 26 23 13 12 21 29 34 36 36 33 34 37 39 40 39 41 41 43 45 46 48 50 49 44 43 42
29 20 14 18 27 35 33 40 39 29 29 14 15 24 34 31 36 38 39 37 36 37 34 27 26 28 31 31 33 33 38 39 38 40 42 41 42 43 44 47 48 48 46 44
36 15 26 26 19 24 31 36 37 14 15 23 39 40 39 22 14 14 20 31 31 15 16 20 15 18 23 28 33 32 35 41 40 40 41 40 42 46 47 45 45 46 47 42
27 24 22 13 20 24 28 34 34 42 43 35 11 27 39 38 39 27 23 15 15 15 11 11 19 20 19 15 15 22 29 33 40 42 41 39 39 43 46 46 45 45 45 50
21 27 25 27 25 17 17 25 34 38 39 29 34 44 63 51 31 24 26 29 30 30 25 25 30 25 16 9 17 20 24 28 32 37 41 43 40 39 41 45 47 46 47 48
23 22 25 33 27 30 33 28 23 34 42 39 46 47 64 53 45 39 40 37 45 51 51 44 41 31 28 22 29 26 23 25 30 32 35 36 36 39 39 43 47 47 49 49
29 17 15 22 26 27 29 34 34 37 39 45 41 49 60 60 52 50 41 34 42 50 52 50 47 40 39 38 32 29 28 25 29 36 36 36 38 38 40 40 44 49 51 50
17 16 12 11 9 14 17 39 35 36 38 37 38 53 51 52 50 43 45 49 48 49 51 48 45 38 43 45 34 29 31 28 29 32 35 38 39 40 41 41 42 45 48 48
23 20 14 12 10 9 29 22 24 27 28 26 33 43 57 54 45 36 40 48 51 52 51 51 48 44 39 40 36 31 25 29 28 30 30 32 34 35 36 37 39 40 42 43
23 22 13 8 13 24 40 39 32 32 39 27 34 44 47 39 39 51 49 39 40 33 34 40 36 39 42 37 34 36 32 33 36 30 28 28 29 28 29 32 33 35 37 39
31 25 17 12 7 8 36 15 14 15 34 27 30 38 39 29 31 45 27 33 36 39 40 42 36 37 40 40 43 46 46 43 43 44 30 29 29 29 29 30 31 33 34 34
13 20 27 24 16 25 27 19 9 19 31 24 21 27 30 37 40 46 41 38 34 37 39 38 38 35 39 38 43 45 44 50 49 44 41 38 37 36 33 32 33 33 34 35
19 15 14 16 15 21 14 11 19 24 33 33 31 36 41 38 38 42 42 39 37 35 34 37 38 38 37 33 38 45 48 47 47 49 41 39 40 41 37 35 35 37 39 40
17 24 16 21 26 21 20 26 27 31 35 43 43 40 46 46 45 46 46 43 41 40 41 42 36 29 31 35 38 45 51 49 46 47 47 41 41 42 41 40 41 41 41 41
22 24 30 30 44 37 41 50 49 48 49 49 49 52 46 55 56 59 58 53 49 44 41 43 42 37 34 31 35 37 44 49 50 47 47 47 43 42 44 45 46 45 43 42
24 26 34 43 44 48 46 50 52 49 50 50 48 51 52 49 55 59 57 53 50 47 43 43 40 36 37 32 33 35 38 41 46 51 49 49 47 44 42 46 48 48 47 44
30 31 36 43 40 46 46 47 52 54 51 51 51 49 53 54 54 59 59 60 59 56 49 45 44 45 41 33 33 35 37 41 41 48 53 52 53 50 45 47 50 51 49 46

GFSCGP_700_spd_144.txt.gz
Wind_Speed
35 25 31 40 32 40 35 26 31 35 18 24 31 36 38 35 40 45 44 43 42 41 35 36 37 40 39 39 36 35 33 28 26 27 29 35 36 35 34 32 31 30 29 29
30 39 42 36 26 27 29 33 32 28 28 23 28 39 38 37 41 41 45 48 45 44 40 37 37 37 44 41 43 40 37 35 29 29 26 28 33 36 36 36 35 33 32 31
38 40 32 28 34 31 36 29 34 27 18 21 25 41 42 36 33 36 40 45 45 42 44 38 37 41 45 43 42 43 44 42 37 31 31 29 30 36 40 40 38 34 33 33
34 40 31 19 34 33 36 40 30 25 24 21 15 14 32 28 36 37 40 39 43 47 47 43 39 41 40 40 41 38 42 48 42 38 37 35 33 33 32 35 37 36 36 35
40 35 30 39 33 25 41 31 30 28 26 25 36 23 53 25 37 41 39 37 43 41 38 36 37 39 40 39 37 36 38 45 51 50 44 43 40 35 34 35 36 38 38 38
34 32 19 30 33 31 21 20 24 29 28 17 38 26 36 43 43 45 39 30 38 46 37 29 33 37 38 35 37 36 36 40 44 50 54 52 48 44 42 39 36 36 38 38
40 35 34 22 26 26 29 28 7 5 6 9 46 22 42 48 33 24 28 27 24 27 28 28 26 28 30 31 34 36 36 36 40 43 47 48 49 46 46 43 39 37 37 39
28 21 43 40 33 30 36 35 18 5 7 7 26 13 35 30 16 29 28 26 23 26 27 30 28 25 28 28 30 35 37 37 39 41 43 46 46 46 46 46 44 42 39 37
21 28 26 30 43 31 24 27 33 32 36 11 7 13 26 28 23 22 24 25 20 18 23 23 25 29 26 24 27 27 28 34 37 41 43 45 45 44 45 47 47 45 43 41
20 9 15 27 17 32 37 25 15 22 8 9 13 19 20 8 8 9 23 32 34 31 17 11 16 19 21 29 30 31 34 35 35 37 40 43 43 43 43 45 49 50 50 49
35 19 10 8 28 29 33 37 35 24 10 2 3 9 35 22 18 22 23 26 26 24 25 30 21 15 14 17 22 25 27 30 30 35 35 39 42 42 44 46 48 49 48 49
39 17 22 25 13 18 27 34 40 28 31 23 17 29 43 26 20 18 16 21 25 22 21 18 18 11 9 12 14 16 21 29 31 35 34 38 41 43 44 44 43 46 47 48
32 22 7 7 26 28 31 35 32 32 39 34 22 30 31 18 19 25 21 22 28 19 15 21 11 9 7 10 13 9 12 16 23 28 33 37 43 45 45 43 44 46 48 48
21 23 28 25 9 13 25 37 34 34 29 39 31 46 58 58 50 44 27 25 26 28 28 35 32 34 32 27 28 30 27 23 20 27 33 35 37 43 43 41 42 44 46 50
27 25 32 33 25 24 28 24 25 23 33 31 45 39 65 55 44 39 35 42 40 42 44 44 46 44 46 42 39 36 38 36 28 26 29 34 34 35 38 43 44 43 44 47
32 20 25 30 27 27 31 35 33 31 31 31 39 43 52 51 51 49 49 48 50 51 47 51 51 50 44 39 37 36 40 35 34 31 30 30 33 36 37 38 39 41 43 44
32 29 17 12 8 9 17 39 39 43 43 42 38 51 54 53 39 35 38 33 32 33 31 32 33 35 34 34 37 38 40 35 33 35 32 31 33 36 39 40 42 43 41 40
27 20 17 4 6 4 26 21 16 20 23 21 28 37 43 40 38 34 31 33 31 31 29 27 29 32 33 36 34 36 39 41 39 38 36 33 30 33 36 38 41 44 44 43
25 22 13 7 12 24 38 30 26 29 34 31 30 33 39 41 41 31 32 31 31 26 25 28 34 35 35 36 37 37 36 41 43 44 40 37 35 32 33 35 34 37 40 42
21 21 21 12 5 8 8 11 8 12 29 19 27 33 39 42 42 29 22 25 24 25 34 31 29 31 34 34 35 40 40 41 47 47 46 42 42 40 36 33 33 33 34 35
29 27 28 23 16 20 24 25 17 15 30 25 25 28 31 33 37 40 37 34 35 36 36 36 32 32 30 32 34 39 42 46 46 49 51 49 48 47 43 37 37 35 35 35
20 18 21 21 12 12 20 18 19 24 29 28 28 31 37 42 45 47 53 50 46 43 43 42 42 37 36 31 30 30 36 40 45 51 54 52 54 53 52 49 43 41 40 40
15 23 16 20 14 21 17 18 23 28 32 36 38 41 49 55 59 60 62 62 57 54 53 52 50 47 40 34 28 32 32 35 37 40 47 50 53 55 55 55 56 50 45 43
19 18 23 25 27 30 34 38 39 42 49 53 53 54 55 58 56 57 60 61 60 54 52 55 56 51 44 39 31 33 36 36 36 37 36 40 47 51 52 54 52 51 49 47
19 20 26 31 34 33 41 43 43 45 48 49 50 53 57 58 56 56 55 57 56 56 52 51 56 53 49 43 40 37 38 38 37 39 37 37 38 45 49 51 54 52 47 46
21 24 23 28 29 31 33 37 43 47 51 55 58 57 57 59 59 58 58 58 58 55 52 52 52 52 50 49 44 44 43 41 39 37 37 36 39 41 45 49 53 53 50 48

GFSCGP_700_spd_147.txt.gz
Wind_Speed
29 30 41 43 32 30 25 26 29 34 30 26 30 39 40 39 41 45 36 33 36 44 37 37 34 35 38 34 36 37 39 36 35 32 30 26 25 27 33 35 34 33 31 30
28 34 31 29 27 27 30 31 39 37 35 26 25 35 39 35 38 40 42 37 37 34 35 35 38 37 40 40 37 35 41 40 39 37 32 31 25 26 28 34 36 36 34 32
34 32 32 27 27 27 27 33 35 33 28 31 30 37 41 39 40 37 37 35 29 26 27 29 33 35 36 39 41 37 31 37 44 42 39 37 34 31 31 31 34 35 35 34
34 35 29 22 30 32 33 33 29 30 26 22 12 13 45 43 37 34 35 32 33 29 28 27 28 35 38 38 39 38 30 32 36 41 47 47 43 38 31 28 25 29 34 36
44 39 38 35 37 25 36 34 32 26 26 26 29 17 46 34 43 40 36 33 36 33 32 33 34 30 31 34 39 41 38 36 37 37 42 48 50 43 37 34 30 29 30 34
38 37 34 33 32 34 24 21 21 27 25 17 36 26 32 40 48 47 38 34 27 19 32 34 28 23 27 30 36 40 40 40 39 38 37 43 49 52 47 42 41 36 34 35
36 34 33 26 25 24 30 29 10 7 6 5 22 20 34 37 43 42 41 41 41 24 27 28 26 22 22 21 29 33 39 41 39 39 38 37 43 49 53 52 50 46 42 41
29 17 37 37 33 29 28 30 16 8 5 5 11 12 27 30 33 29 25 22 15 16 19 19 22 25 25 25 25 27 34 38 34 35 36 34 36 42 44 47 50 49 45 42
23 25 26 32 40 29 26 29 35 33 34 11 18 27 34 23 27 26 21 15 19 18 25 21 24 25 23 24 28 27 28 30 28 27 32 35 35 43 43 42 46 47 45 43
16 11 20 25 20 29 41 32 23 20 4 11 11 24 23 40 35 13 15 11 10 13 16 17 15 17 23 24 23 24 29 31 32 29 32 34 38 41 42 42 47 47 44 44
32 15 7 16 26 31 32 37 32 20 20 3 6 11 33 29 30 19 8 16 19 24 25 20 17 22 17 16 15 12 12 18 29 37 37 35 37 41 40 41 44 45 41 44
38 21 16 17 20 22 30 32 35 25 14 14 13 27 35 17 20 22 34 32 20 13 7 7 12 10 12 10 10 12 20 23 21 21 30 36 39 37 40 39 38 41 43 43
42 24 11 13 28 26 27 28 32 32 31 32 16 29 46 32 24 28 24 22 18 23 23 21 19 23 22 25 25 27 30 29 23 23 24 27 34 38 38 38 38 40 42 43
28 33 31 23 6 26 33 27 30 33 29 40 32 48 50 44 45 44 42 42 45 41 41 39 32 34 33 36 37 37 37 37 32 31 31 28 29 32 38 38 39 41 44 44
27 31 32 28 25 15 15 18 20 29 41 29 45 35 56 46 43 40 39 36 35 33 34 33 44 41 42 43 46 48 45 38 35 38 40 36 34 33 33 39 38 38 42 43
29 19 28 24 28 29 34 37 32 28 27 29 32 42 42 41 46 35 29 27 25 24 28 30 31 33 37 39 41 41 38 40 40 39 41 40 37 36 35 36 37 38 39 41
39 32 17 9 14 16 24 33 34 34 35 39 39 46 40 45 38 33 32 32 32 30 33 34 32 33 33 35 37 38 35 35 38 40 41 40 39 42 39 39 40 41 42 41
35 31 24 7 9 4 17 10 7 14 17 18 23 29 37 38 35 36 36 34 33 33 33 36 39 38 36 36 36 40 40 38 39 42 45 44 43 45 43 43 44 43 43 44
29 35 16 13 23 13 15 13 13 14 22 26 29 33 39 40 36 34 29 28 28 29 33 35 33 30 31 36 39 41 42 41 40 42 47 46 47 49 48 47 47 44 44 44
28 26 32 15 6 8 9 10 9 13 24 21 26 29 33 37 37 34 30 27 30 34 34 37 39 39 42 40 40 43 44 42 42 41 44 47 47 51 55 52 50 48 46 45
27 28 31 30 15 14 16 17 18 18 27 21 24 26 29 33 37 42 40 37 39 41 42 44 46 48 50 50 49 47 46 46 44 40 39 43 46 48 50 58 54 51 50 48
32 27 25 25 12 13 23 18 20 21 22 23 25 28 32 38 44 48 52 53 53 57 58 57 55 56 55 56 56 55 53 48 46 44 39 38 42 45 48 52 58 56 53 52
29 31 30 23 19 18 13 12 17 22 25 28 32 37 42 46 52 59 64 67 64 61 58 59 58 55 53 53 55 58 58 54 50 48 44 39 37 40 43 46 51 55 55 54
30 22 26 20 26 27 25 24 27 31 35 40 44 47 49 52 54 59 61 62 63 62 60 57 57 56 53 52 52 54 57 58 55 54 50 46 43 39 40 43 45 49 53 54
24 26 26 27 25 21 25 30 33 32 33 35 38 41 44 48 52 57 61 63 64 64 62 59 57 56 55 53 52 53 54 54 55 55 55 52 50 45 40 41 44 44 48 51
25 26 27 26 24 25 25 27 28 29 32 33 36 39 42 46 49 51 53 57 61 61 59 58 55 55 54 54 55 55 52 52 52 52 52 53 53 51 47 43 42 44 44 48

GFSCGP_700_spd_150.txt.gz
Wind_Speed
24 28 37 34 33 30 28 27 29 26 21 27 31 40 41 39 41 46 47 44 43 40 33 34 36 38 35 34 33 32 30 29 31 43 35 32 29 26 25 25 28 33 35 34
28 37 34 29 29 29 30 32 34 27 26 28 32 43 44 38 33 36 40 43 41 36 37 38 36 37 37 37 36 35 36 32 31 33 45 36 34 33 30 28 28 30 35 35
35 26 33 30 29 28 30 34 33 28 28 32 30 43 42 41 39 35 34 37 39 36 38 34 31 31 33 37 36 34 34 34 30 27 36 43 41 40 39 34 30 27 31 35
34 36 28 18 30 25 29 29 27 25 20 15 9 15 39 42 43 35 33 37 35 35 32 33 34 31 28 31 34 35 35 35 33 30 34 40 40 42 43 42 37 32 28 29
39 36 37 37 35 30 38 35 34 29 30 29 30 16 32 33 42 45 36 31 32 32 33 33 31 28 28 31 29 30 34 38 40 38 35 39 44 41 44 46 46 42 35 32
39 35 31 39 36 30 27 22 17 22 23 17 41 24 30 42 38 40 41 37 35 31 31 31 28 28 27 28 29 27 31 35 37 42 41 40 42 44 42 44 45 47 42 38
37 39 39 37 29 28 30 28 10 5 8 9 18 17 29 34 25 30 34 28 16 17 17 23 21 23 24 25 26 26 26 33 35 38 41 43 39 43 45 42 42 46 51 49
26 15 38 32 36 35 34 35 16 6 5 7 13 10 26 32 38 34 20 28 22 17 17 14 19 21 24 24 24 23 27 29 29 32 35 38 36 38 42 43 39 41 46 51
25 22 21 39 34 30 25 35 38 30 29 8 13 21 32 38 39 33 39 35 20 18 12 10 13 15 15 15 18 21 25 30 31 33 33 35 35 38 40 42 40 38 43 43
21 10 20 24 25 36 37 27 18 22 4 6 7 15 22 37 33 24 17 11 13 12 15 9 7 5 8 12 12 12 9 11 21 26 32 34 34 36 36 41 42 42 45 48
31 21 8 18 31 38 38 39 29 16 21 4 3 12 38 32 24 23 27 20 21 17 11 5 5 2 4 4 9 12 11 13 12 17 18 26 34 41 45 45 46 48 47 49
43 18 23 23 22 25 32 39 40 27 13 16 20 30 40 22 18 18 25 31 30 24 28 19 19 17 18 17 19 23 22 20 17 16 20 23 24 25 32 40 43 44 47 48
44 28 16 17 18 23 29 35 34 35 28 33 14 31 22 14 26 20 27 30 34 37 37 36 33 31 33 32 29 30 34 34 33 30 29 29 29 30 29 32 35 42 45 45
33 34 32 27 22 30 30 31 33 37 29 39 33 46 54 42 39 36 35 34 32 35 33 31 36 38 42 44 41 37 39 41 42 43 43 38 36 37 35 34 33 36 40 44
31 39 38 33 23 21 24 32 33 33 42 26 32 33 54 30 35 39 33 37 38 30 28 28 27 29 33 36 41 44 46 46 47 47 47 47 42 41 43 41 38 37 38 41
35 18 32 33 35 27 28 25 20 23 26 30 30 51 39 36 36 40 40 36 28 27 26 28 31 32 35 37 38 39 44 48 48 48 45 44 45 44 45 47 46 41 40 40
41 34 22 20 24 21 28 40 38 37 35 35 41 46 44 39 34 29 30 31 31 31 31 31 34 36 36 37 39 41 43 43 44 45 45 45 46 46 46 47 50 52 47 44
39 38 23 10 13 6 20 19 12 21 24 26 31 34 34 33 31 31 32 32 31 30 30 32 36 38 40 42 43 45 46 47 46 45 45 45 46 48 48 50 51 52 54 51
41 42 19 13 24 11 10 14 19 19 19 22 23 27 32 32 32 28 25 26 26 26 29 33 36 40 42 45 46 47 47 47 46 47 48 47 46 48 49 50 51 53 55 56
37 34 37 17 11 9 14 25 22 22 32 23 25 29 31 30 29 26 23 27 32 35 36 39 40 42 44 47 51 53 53 55 54 53 54 52 48 48 50 50 50 51 52 57
37 35 38 30 15 11 14 16 21 20 22 22 25 26 29 27 30 33 35 36 38 43 47 50 53 55 56 57 56 57 58 59 60 61 62 60 56 52 50 51 50 50 50 50
36 27 27 32 23 19 17 23 27 28 27 24 23 25 28 32 36 39 42 46 50 51 50 51 52 54 54 53 55 56 57 59 61 64 64 63 61 59 54 53 52 50 50 49
31 38 29 28 22 23 13 18 19 20 25 25 25 28 32 36 42 47 45 43 44 45 47 49 53 56 56 56 55 56 56 57 58 57 58 60 59 58 56 55 55 54 49 49
37 34 31 24 31 26 26 24 23 23 25 27 31 35 39 38 37 38 40 43 43 45 46 49 51 53 56 58 58 58 57 57 58 59 58 57 58 57 56 56 57 57 55 50
31 33 31 33 30 24 29 31 28 26 28 32 35 34 33 32 34 37 40 43 45 47 49 50 53 55 56 57 57 57 58 59 58 58 59 58 58 58 57 55 55 55 56 54
29 32 32 34 34 30 26 25 27 29 30 31 29 29 32 34 36 37 38 41 46 49 50 50 52 53 54 55 55 54 53 54 57 58 59 59 57 58 57 56 54 51 54 55